Wind_Speed
38 38 38 37 35 35 33 31 34 33 33 32 35 26 31 31 29 25 32 27 26 21 25 38 27 19 12 22 6 10 7 2 2 4 5 5 4 8 4 7 9 9 10 5 4 5 11 14 6 8 4 11 15 16
38 37 36 36 36 35 35 32 33 34 32 31 35 31 28 31 30 29 35 29 29 24 31 43 37 41 33 22 24 28 7 10 15 3 3 3 3 3 5 4 3 4 7 7 11 8 3 29 2 12 14 18 14 12
41 40 38 37 36 35 36 33 31 31 30 30 31 34 29 30 27 28 33 30 23 18 24 26 39 43 35 29 27 17 10 9 10 7 7 3 4 4 6 5 5 4 8 3 3 4 6 25 11 16 13 12 13 10
40 39 39 38 37 37 36 34 30 29 30 28 31 32 27 31 25 27 25 26 21 9 6 7 33 31 37 39 29 26 19 22 12 13 4 3 3 11 5 3 5 5 12 7 4 2 4 12 17 16 13 14 14 14
40 37 38 38 38 36 36 31 29 28 28 27 33 32 24 27 25 24 25 28 28 17 3 9 13 34 36 33 32 35 24 21 14 6 3 4 5 4 2 2 4 9 7 6 8 14 7 8 25 20 17 17 15 15
39 39 40 39 41 33 35 28 26 27 25 25 30 28 23 23 25 22 9 18 23 26 7 3 10 13 26 31 29 28 26 23 13 8 5 6 5 5 5 5 2 26 17 18 8 17 9 13 22 20 19 18 16 13
34 35 33 30 28 30 20 21 23 24 24 26 30 24 22 23 24 20 7 5 2 3 6 2 3 6 15 18 17 18 24 11 10 5 5 6 4 6 1 11 5 9 10 11 18 22 14 19 13 20 19 19 16 13
26 18 18 18 13 13 17 19 21 22 23 24 28 25 23 27 24 25 27 28 18 7 8 2 1 3 14 5 5 10 8 9 7 6 4 3 5 2 4 2 8 12 16 18 15 7 10 19 23 23 20 19 17 13
18 14 15 11 11 14 15 16 18 22 23 23 24 21 21 12 13 17 19 19 18 13 4 4 5 3 10 4 6 5 7 3 4 2 3 9 3 5 1 8 16 18 10 16 12 12 17 22 26 24 21 18 14 13
10 6 5 8 10 11 13 16 20 21 22 19 17 5 6 7 14 12 7 6 8 7 5 2 5 2 4 4 2 5 3 3 3 2 8 2 2 3 6 4 14 17 12 17 22 18 23 25 25 22 18 14 11 9
6 5 7 8 7 10 14 18 22 15 15 13 6 8 7 7 5 5 5 4 4 2 2 4 4 3 3 2 3 2 3 2 3 2 3 2 1 3 5 8 9 10 13 15 8 12 19 21 24 21 18 14 10 8
6 5 5 7 10 13 18 19 11 14 11 6 5 4 4 5 4 3 2 0 2 1 1 1 3 4 5 4 3 2 3 1 3 4 2 2 2 6 7 10 11 11 12 10 9 17 17 17 16 15 14 11 9 7
6 7 9 11 13 17 18 17 9 15 17 9 5 4 2 1 2 2 2 0 2 1 2 3 2 3 4 5 4 2 4 3 3 2 2 2 6 8 10 13 14 12 12 13 15 16 17 17 15 11 10 9 8 6
8 9 12 13 12 16 19 9 13 6 4 1 1 2 2 2 3 2 3 2 2 4 11 10 4 3 4 3 2 4 2 1 2 2 2 2 8 11 11 12 13 14 13 14 16 16 15 13 12 10 8 7 5 3
10 11 12 12 15 18 19 14 10 8 4 5 5 4 4 2 3 5 5 6 8 5 4 5 6 5 3 4 2 3 3 3 3 2 2 4 9 12 13 13 14 15 15 15 14 13 11 9 8 7 7 5 4 3
11 10 17 15 16 20 14 11 11 7 4 5 8 3 6 2 6 11 13 10 12 6 3 4 3 4 4 2 3 4 3 3 2 2 3 8 11 12 13 13 13 14 14 14 12 10 8 7 7 6 5 5 4 3
12 10 14 13 18 17 9 9 6 7 6 5 5 12 8 7 5 7 11 15 13 4 2 2 5 3 0 4 4 4 3 2 2 5 4 5 8 11 12 13 13 12 12 10 9 8 7 7 7 6 5 5 4 4
10 8 12 14 14 11 11 10 5 7 8 9 4 12 13 12 7 15 15 22 11 6 5 3 4 6 4 3 2 2 3 6 6 6 7 8 9 10 10 10 11 10 9 7 6 5 6 6 5 5 4 4 4 4
8 9 13 14 13 11 6 8 7 5 7 4 6 11 8 7 19 18 17 12 14 13 5 6 6 3 3 5 5 6 4 2 3 6 8 9 8 8 9 9 8 7 6 5 4 5 5 5 5 4 5 4 4 3
10 9 11 12 11 5 4 6 6 6 5 6 8 10 5 5 10 13 21 18 18 8 11 5 3 5 4 5 6 6 4 4 3 6 7 7 7 7 6 6 6 6 4 4 5 5 4 4 4 4 4 4 4 4
8 8 11 12 6 9 7 6 6 5 3 5 5 6 5 8 10 13 17 16 13 9 5 8 7 6 5 5 5 6 6 5 5 4 1 7 7 6 6 5 5 4 3 3 3 3 4 4 3 4 5 5 6 6
9 8 8 10 7 5 7 9 4 3 3 3 5 6 7 5 8 12 10 16 7 8 6 8 8 7 6 7 7 7 7 5 5 6 5 5 7 5 3 2 2 2 2 2 2 3 4 5 5 6 6 6 6 6
9 7 5 10 4 7 4 6 4 6 4 5 4 4 4 5 7 8 7 7 5 10 9 8 8 8 8 8 6 6 6 6 7 8 8 7 5 3 2 1 1 1 2 3 4 4 5 6 6 7 6 7 7 7
10 5 7 7 10 3 4 6 5 5 4 4 3 3 4 6 7 7 3 3 4 5 5 6 5 6 6 5 7 7 8 7 6 5 5 5 3 2 1 1 2 3 3 4 5 5 5 6 6 7 7 8 8 8
4 11 7 8 9 6 6 5 6 5 3 3 3 4 4 5 3 3 2 1 3 5 6 6 6 6 6 7 6 6 5 4 3 3 3 2 2 1 1 2 2 3 4 5 5 5 5 6 6 7 7 7 8 8
7 10 6 8 7 5 2 3 4 3 2 4 2 5 4 2 4 2 0 1 1 2 3 4 5 5 4 3 3 3 3 2 2 2 2 2 2 2 2 2 3 3 4 5 5 6 6 7 7 7 7 8 8 10
5 4 6 7 4 3 3 4 3 5 4 4 3 4 2 3 2 0 1 2 2 1 1 2 2 2 2 2 2 2 2 3 2 2 2 2 2 3 3 4 5 5 7 7 7 7 7 7 8 9 9 9 8 9
5 8 3 9 5 7 2 3 4 4 3 7 4 4 2 1 0 1 1 2 3 2 1 1 0 1 1 1 2 2 3 3 3 3 2 0 1 2 4 5 6 7 9 8 8 8 8 8 8 8 7 6 7 9
4 7 4 7 4 7 7 3 3 3 6 4 2 2 1 2 1 0 1 2 1 1 1 1 2 2 2 3 3 4 4 4 4 4 4 4 4 2 3 5 6 7 8 8 8 8 7 8 12 13 12 11 10 7
6 9 2 3 4 3 4 4 3 4 5 5 2 2 2 3 3 2 1 1 1 1 1 2 3 4 5 5 5 5 5 5 4 4 4 4 5 5 6 7 8 9 10 10 9 9 9 10 10 9 7 6 8 11
5 5 3 4 3 3 4 4 4 4 4 5 5 3 2 2 2 2 2 2 2 3 3 4 5 6 6 6 6 6 5 5 4 4 4 4 5 6 7 9 11 11 13 13 13 15 15 15 14 14 13 12 12 13
5 5 2 2 2 1 4 3 3 2 3 3 3 4 3 3 2 2 3 3 3 4 5 5 5 5 6 6 6 6 6 7 7 7 7 7 6 7 9 13 14 16 19 20 19 16 15 15 15 15 15 15 15 16
3 4 4 2 2 2 3 4 3 2 2 2 4 5 5 3 2 4 4 5 5 6 6 6 6 7 7 8 8 8 8 7 7 8 9 9 8 9 11 15 20 23 22 18 15 14 14 14 14 14 15 15 15 15
Wind_Direction
289 288 286 284 283 286 283 288 288 284 290 289 279 289 269 277 281 257 273 273 279 289 260 216 213 192 171 192 163 152 108 198 95 181 168 192 172 207 148 151 169 164 166 188 179 221 265 152 117 178 174 138 149 149
288 287 285 284 286 282 283 280 284 282 287 289 291 298 274 269 278 269 262 273 283 276 279 221 225 225 225 212 197 168 191 160 179 153 206 125 164 142 153 209 161 199 189 180 190 208 150 177 195 186 161 156 162 167
286 283 281 280 281 279 281 281 280 280 284 287 289 289 279 269 270 259 265 264 279 291 280 205 215 221 224 217 218 178 212 195 195 185 160 167 177 149 173 219 171 233 175 199 133 195 199 194 187 172 168 167 176 177
289 285 281 278 276 277 275 280 275 276 280 284 288 289 281 269 273 266 268 262 257 270 278 246 220 220 221 223 220 219 220 197 191 187 151 162 179 192 188 177 193 182 152 176 250 162 119 198 196 177 178 174 168 164
286 288 281 279 273 272 274 278 272 273 278 285 289 293 273 274 281 275 269 261 245 237 288 322 258 209 210 211 218 224 217 201 178 155 147 211 155 132 76 62 215 187 167 183 232 191 172 184 194 195 185 174 170 172
284 284 289 288 278 261 268 265 270 273 280 283 288 287 276 270 277 282 265 256 233 235 229 231 231 212 202 206 205 205 203 202 195 175 195 193 181 198 179 224 162 207 209 219 194 162 155 148 175 181 175 166 167 163
291 274 280 286 274 266 257 262 268 274 281 287 291 281 274 274 281 248 241 223 226 199 202 239 229 168 174 167 169 185 194 192 196 201 209 145 144 188 261 256 111 173 170 150 148 145 116 152 163 169 170 159 158 155
295 294 277 278 266 256 260 266 272 276 283 296 287 286 277 281 272 246 251 266 261 268 230 210 341 166 161 146 122 149 147 160 176 189 146 116 125 139 242 107 133 142 140 141 148 153 158 161 159 162 164 157 157 157
299 287 276 255 252 262 270 277 275 289 293 292 278 282 292 227 224 244 258 248 248 214 190 155 172 183 161 118 119 122 142 141 150 161 176 148 144 214 340 178 169 166 165 149 136 129 144 160 160 160 160 158 163 161
305 280 248 265 272 274 276 281 290 294 297 272 270 271 235 218 233 248 231 225 205 187 188 127 137 148 161 142 104 108 125 134 154 150 142 199 156 78 10 201 180 167 155 154 134 134 153 157 161 162 163 161 164 164
335 309 309 307 296 295 293 295 300 286 283 257 225 220 228 236 213 212 243 216 152 118 147 134 160 136 151 119 112 96 135 154 137 145 171 153 113 34 48 114 150 157 153 155 150 167 168 167 162 162 161 163 165 166
348 344 340 327 324 311 305 305 299 299 254 247 244 234 191 185 217 242 251 124 36 131 75 96 122 119 112 115 104 72 101 144 100 140 95 114 68 87 99 109 120 131 140 136 143 149 150 156 158 158 157 159 162 165
4 353 345 335 332 322 322 328 306 305 276 273 224 197 206 204 235 254 213 60 77 89 147 147 106 96 107 88 82 80 66 52 146 49 70 63 117 118 121 124 123 129 138 139 137 142 146 149 150 154 159 160 160 164
348 340 341 345 334 334 332 318 282 340 272 280 194 61 13 31 34 359 335 358 21 111 115 108 75 65 53 58 67 82 74 150 76 67 64 102 150 144 145 143 143 135 136 136 137 139 143 148 152 155 156 154 158 169
356 358 355 351 348 345 341 318 339 353 14 32 27 38 30 349 10 356 15 50 47 75 87 85 72 74 44 78 43 118 107 76 49 74 65 101 149 153 150 149 147 144 142 141 139 140 142 146 151 157 158 163 175 193
7 9 10 9 359 357 357 335 343 16 48 44 41 19 0 21 18 22 29 28 17 2 23 52 90 75 50 57 53 20 75 57 90 61 108 146 153 158 155 152 149 148 149 149 148 148 150 154 160 165 172 182 193 203
9 14 3 7 354 356 10 333 8 40 43 36 23 21 28 54 33 22 19 358 357 4 34 24 56 52 76 54 41 13 46 53 62 80 110 140 153 157 158 157 156 157 156 154 153 156 161 167 174 180 185 192 201 215
14 1 2 1 3 6 12 24 53 56 53 26 41 11 40 48 31 31 20 22 27 31 29 81 110 45 40 66 48 32 85 91 92 90 104 131 145 152 157 161 160 161 162 164 171 180 182 181 184 188 199 206 214 231
1 2 1 0 353 349 3 27 38 78 48 38 28 30 37 51 47 40 31 29 49 52 70 49 56 40 48 35 34 57 89 52 113 106 114 127 140 155 159 165 169 171 175 182 192 188 191 198 206 210 222 224 230 251
5 3 2 356 351 357 45 36 42 65 48 27 36 27 40 30 23 21 29 34 47 50 41 42 34 15 21 44 51 40 35 60 96 118 132 144 149 157 166 172 177 184 192 202 202 206 208 222 226 234 243 253 261 266
353 349 353 349 14 46 58 32 49 51 35 59 22 35 41 38 29 21 16 20 57 38 50 45 35 38 53 64 72 70 81 73 63 61 128 168 166 165 170 176 185 194 201 210 216 220 227 234 256 259 265 270 269 267
360 351 343 10 35 58 57 34 49 24 42 47 30 28 33 21 13 12 8 46 57 28 20 12 29 46 73 85 78 77 72 74 69 72 87 126 153 152 159 165 185 203 220 229 246 256 262 265 268 271 270 267 271 269
351 352 19 19 58 40 31 19 31 21 52 13 17 42 25 21 11 5 66 53 63 28 39 43 70 80 84 80 79 84 77 66 73 79 86 96 106 108 120 160 214 241 257 270 273 277 276 273 272 274 276 279 279 272
359 31 27 33 25 23 2 28 30 25 45 28 35 22 0 359 0 59 72 60 29 31 53 59 84 73 83 90 82 78 76 70 67 76 86 85 82 93 115 243 263 273 282 286 285 284 281 280 280 281 283 283 281 276
16 14 17 2 18 24 26 6 356 30 43 346 52 5 344 349 61 55 69 55 24 47 61 72 89 95 96 89 81 72 69 65 66 51 63 67 58 28 338 314 302 296 295 291 291 292 291 291 290 290 287 282 278 276
65 19 39 0 0 42 345 34 16 3 31 29 352 327 345 56 57 40 18 159 93 66 67 72 79 83 84 80 59 51 48 48 42 34 33 36 28 10 351 339 333 322 318 314 309 301 292 289 290 290 291 289 283 271
48 340 18 20 351 344 41 45 47 57 45 19 338 333 355 59 41 109 169 180 170 143 96 87 89 75 67 58 48 44 44 42 32 13 11 9 3 356 355 352 346 332 317 311 305 303 302 300 299 297 297 291 292 292
54 24 38 355 35 32 65 38 35 22 357 345 300 23 51 49 285 262 214 206 184 172 141 90 30 329 334 356 355 349 333 324 311 305 299 299 326 357 3 0 356 353 349 338 319 310 308 310 313 312 298 310 309 301
44 2 2 22 37 44 42 48 28 22 351 356 5 4 2 8 345 339 138 166 178 192 234 276 296 290 294 305 316 321 319 311 297 282 269 260 246 288 330 347 345 344 344 341 337 331 326 327 304 298 293 284 283 289
20 12 53 46 64 15 21 35 41 35 27 22 11 1 8 19 39 65 84 123 178 242 291 311 315 313 310 310 311 309 309 308 307 291 270 255 249 276 302 324 328 328 329 327 324 317 311 308 306 309 304 282 265 271
2 4 52 54 82 65 64 41 33 28 28 26 30 23 15 9 27 36 26 357 331 316 308 304 300 300 300 300 301 301 298 291 284 285 280 278 281 284 302 313 315 312 314 318 318 312 303 298 297 295 292 287 284 285
19 37 44 69 100 132 352 359 359 3 6 8 8 10 2 360 9 21 4 351 332 316 312 312 314 312 310 309 308 305 301 298 294 290 286 284 285 294 302 314 311 308 312 317 318 312 304 299 297 293 290 287 285 285
26 32 50 63 61 32 360 352 8 353 22 26 19 18 16 8 355 0 350 345 338 329 322 317 313 309 307 305 303 302 300 297 293 289 289 289 295 301 319 312 300 304 311 314 312 310 305 301 300 298 296 295 294 292
Height
1471 1467 1464 1462 1460 1458 1455 1454 1451 1448 1445 1443 1441 1438 1438 1438 1439 1438 1433 1434 1435 1428 1419 1415 1420 1422 1425 1430 1438 1445 1454 1459 1462 1464 1466 1468 1469 1469 1473 1477 1486 1488 1496 1501 1500 1499 1482 1465 1473 1473 1465 1465 1467 1472
1459 1456 1454 1451 1449 1447 1445 1443 1442 1439 1437 1435 1433 1429 1429 1431 1431 1429 1424 1425 1426 1425 1416 1407 1410 1416 1417 1419 1425 1433 1433 1436 1441 1453 1457 1456 1458 1464 1462 1467 1472 1470 1463 1474 1474 1463 1456 1458 1457 1457 1459 1461 1467 1470
1447 1444 1442 1440 1438 1437 1435 1433 1432 1430 1428 1426 1426 1423 1421 1421 1421 1420 1416 1418 1417 1412 1401 1396 1396 1403 1409 1413 1416 1422 1428 1429 1431 1433 1438 1444 1448 1450 1453 1455 1458 1456 1454 1457 1461 1451 1452 1454 1456 1457 1459 1461 1465 1468
1434 1431 1429 1428 1427 1425 1424 1423 1422 1421 1420 1418 1416 1413 1412 1412 1412 1411 1408 1408 1411 1409 1405 1388 1388 1394 1400 1406 1410 1413 1417 1422 1427 1431 1431 1435 1439 1435 1442 1436 1440 1441 1445 1449 1451 1451 1452 1452 1453 1454 1458 1461 1464 1467
1422 1419 1418 1415 1414 1414 1413 1413 1413 1412 1411 1410 1408 1406 1404 1404 1403 1401 1398 1400 1402 1406 1396 1393 1389 1386 1390 1395 1401 1407 1412 1416 1419 1424 1427 1431 1428 1433 1435 1437 1434 1428 1431 1437 1430 1431 1436 1440 1446 1451 1456 1459 1462 1465
1409 1407 1406 1402 1399 1402 1402 1403 1404 1404 1403 1401 1401 1398 1397 1398 1398 1396 1392 1390 1391 1391 1395 1391 1386 1382 1382 1387 1393 1400 1406 1411 1413 1414 1418 1419 1420 1423 1425 1421 1413 1415 1418 1419 1422 1428 1433 1435 1443 1449 1453 1457 1462 1466
1396 1393 1394 1393 1390 1391 1392 1396 1397 1397 1396 1393 1391 1390 1389 1390 1388 1387 1386 1383 1381 1383 1386 1385 1381 1379 1382 1384 1389 1396 1400 1403 1409 1413 1414 1415 1418 1420 1420 1405 1415 1415 1415 1418 1421 1425 1434 1439 1443 1449 1452 1456 1461 1465
1388 1385 1386 1386 1386 1387 1390 1391 1391 1391 1389 1387 1385 1384 1382 1382 1380 1379 1379 1378 1378 1379 1380 1375 1380 1381 1379 1381 1386 1389 1395 1400 1405 1407 1410 1411 1418 1420 1418 1414 1415 1416 1416 1418 1421 1424 1427 1435 1443 1449 1452 1455 1459 1463
1382 1381 1382 1383 1384 1385 1386 1386 1386 1385 1383 1382 1381 1379 1377 1374 1372 1371 1373 1373 1372 1378 1369 1372 1376 1375 1377 1380 1382 1386 1391 1399 1403 1404 1407 1410 1413 1412 1411 1411 1412 1414 1416 1417 1422 1426 1431 1437 1443 1449 1452 1455 1459 1463
1380 1380 1381 1382 1383 1382 1382 1381 1380 1379 1377 1377 1376 1374 1371 1369 1368 1369 1369 1368 1365 1363 1365 1366 1370 1374 1375 1376 1382 1386 1387 1394 1398 1404 1405 1406 1406 1413 1413 1411 1412 1415 1416 1419 1423 1431 1435 1440 1445 1449 1452 1456 1460 1463
1383 1382 1382 1381 1381 1380 1378 1376 1374 1374 1373 1371 1369 1368 1366 1366 1366 1366 1364 1360 1358 1359 1362 1366 1368 1368 1373 1374 1379 1382 1386 1392 1394 1401 1402 1404 1408 1416 1415 1414 1416 1419 1421 1424 1427 1430 1435 1439 1443 1448 1453 1457 1460 1462
1385 1383 1382 1381 1380 1378 1375 1373 1371 1369 1365 1366 1364 1362 1363 1363 1363 1362 1358 1357 1356 1359 1363 1365 1366 1367 1370 1372 1376 1383 1386 1389 1394 1402 1402 1404 1419 1419 1419 1418 1420 1423 1426 1430 1432 1434 1438 1443 1447 1451 1454 1457 1459 1461
1387 1385 1384 1382 1380 1376 1372 1369 1366 1363 1361 1362 1362 1361 1361 1362 1360 1359 1357 1359 1362 1363 1365 1367 1368 1368 1370 1371 1378 1382 1389 1399 1401 1402 1407 1416 1419 1420 1422 1423 1425 1428 1431 1433 1436 1438 1442 1446 1450 1453 1455 1457 1458 1460
1389 1387 1385 1382 1379 1376 1370 1366 1364 1363 1362 1361 1360 1362 1364 1362 1368 1368 1367 1366 1365 1364 1364 1364 1365 1369 1372 1376 1382 1388 1399 1400 1402 1404 1411 1418 1421 1423 1425 1426 1428 1432 1435 1437 1440 1442 1445 1448 1451 1453 1455 1456 1458 1459
1391 1389 1386 1383 1380 1376 1371 1368 1367 1365 1363 1362 1363 1370 1372 1374 1372 1370 1369 1367 1367 1367 1366 1364 1367 1372 1378 1384 1388 1393 1396 1402 1407 1410 1416 1420 1423 1425 1427 1429 1431 1434 1436 1440 1442 1445 1447 1450 1452 1454 1455 1457 1458 1459
1392 1391 1388 1384 1381 1377 1373 1371 1368 1366 1367 1370 1375 1376 1376 1375 1375 1374 1373 1372 1372 1370 1369 1368 1371 1377 1386 1389 1390 1396 1395 1405 1416 1420 1421 1423 1424 1427 1429 1431 1434 1436 1439 1441 1442 1445 1447 1449 1452 1454 1455 1456 1457 1458
1394 1392 1390 1386 1382 1378 1375 1373 1371 1372 1376 1380 1386 1385 1383 1383 1384 1382 1380 1377 1374 1373 1374 1373 1378 1392 1395 1399 1406 1413 1416 1421 1422 1423 1424 1425 1427 1429 1432 1434 1437 1440 1441 1443 1444 1445 1446 1448 1451 1452 1453 1454 1455 1457
1396 1395 1392 1388 1384 1382 1379 1376 1377 1382 1388 1392 1392 1392 1390 1389 1388 1386 1385 1381 1377 1377 1379 1387 1391 1401 1408 1411 1418 1425 1425 1425 1425 1424 1425 1426 1429 1432 1434 1437 1440 1442 1443 1444 1446 1446 1447 1449 1450 1450 1451 1453 1454 1455
1400 1398 1395 1391 1388 1386 1383 1384 1386 1392 1397 1397 1398 1397 1396 1396 1395 1394 1390 1388 1386 1386 1388 1394 1408 1419 1424 1427 1428 1427 1427 1427 1427 1427 1428 1430 1432 1434 1436 1439 1441 1442 1445 1446 1447 1447 1448 1449 1450 1450 1451 1451 1452 1452
1403 1401 1398 1395 1392 1390 1390 1393 1395 1398 1402 1404 1403 1402 1402 1402 1400 1398 1396 1393 1392 1395 1406 1419 1431 1432 1431 1431 1431 1430 1430 1430 1429 1430 1432 1433 1434 1436 1439 1440 1442 1444 1445 1446 1447 1447 1447 1449 1450 1450 1449 1449 1449 1450
1405 1403 1400 1398 1395 1394 1398 1401 1403 1405 1406 1407 1407 1407 1407 1406 1405 1403 1402 1401 1403 1422 1432 1436 1436 1435 1434 1434 1434 1434 1433 1433 1433 1434 1434 1434 1436 1438 1440 1442 1443 1444 1446 1446 1447 1447 1448 1448 1448 1447 1447 1447 1448 1448
1405 1404 1402 1400 1399 1401 1405 1408 1409 1410 1410 1410 1410 1411 1412 1413 1414 1414 1414 1413 1431 1439 1439 1439 1438 1437 1437 1436 1436 1436 1436 1436 1435 1435 1435 1436 1438 1440 1441 1443 1444 1445 1445 1445 1445 1446 1446 1446 1446 1446 1446 1446 1446 1446
1408 1406 1405 1405 1404 1407 1415 1412 1412 1413 1414 1416 1416 1418 1421 1422 1423 1422 1428 1437 1442 1443 1442 1441 1440 1439 1439 1439 1438 1439 1438 1438 1438 1438 1438 1439 1440 1441 1443 1444 1444 1445 1445 1445 1445 1445 1444 1445 1445 1444 1444 1443 1443 1443
1410 1409 1410 1412 1415 1418 1418 1417 1419 1419 1419 1422 1425 1429 1428 1427 1426 1429 1441 1444 1446 1445 1444 1443 1442 1442 1442 1442 1441 1441 1441 1441 1441 1441 1441 1442 1443 1443 1444 1444 1444 1444 1444 1444 1444 1444 1444 1443 1442 1442 1441 1441 1441 1441
1416 1423 1424 1425 1425 1424 1427 1427 1427 1426 1434 1434 1433 1434 1432 1431 1436 1443 1446 1447 1446 1446 1445 1445 1445 1445 1444 1444 1444 1444 1444 1444 1444 1444 1444 1444 1444 1444 1444 1444 1444 1444 1443 1443 1442 1442 1441 1440 1440 1440 1440 1439 1439 1438
1430 1436 1436 1436 1435 1434 1437 1439 1438 1438 1438 1439 1438 1436 1434 1434 1441 1449 1448 1448 1447 1447 1447 1447 1446 1447 1446 1446 1446 1446 1446 1446 1445 1445 1445 1445 1444 1444 1444 1444 1443 1443 1442 1441 1440 1440 1439 1439 1439 1438 1437 1437 1436 1436
1442 1444 1442 1442 1440 1440 1440 1440 1440 1440 1443 1444 1442 1438 1436 1438 1445 1449 1448 1448 1448 1449 1449 1448 1448 1448 1448 1448 1448 1447 1447 1446 1446 1446 1446 1445 1445 1444 1444 1444 1443 1442 1441 1440 1439 1438 1438 1437 1436 1436 1435 1434 1434 1433
1446 1447 1447 1446 1444 1444 1444 1444 1446 1449 1448 1448 1446 1445 1444 1448 1449 1449 1448 1448 1448 1449 1449 1449 1449 1449 1449 1448 1448 1448 1447 1447 1447 1446 1446 1445 1445 1444 1444 1443 1442 1441 1440 1438 1437 1436 1436 1435 1434 1433 1433 1432 1432 1431
1449 1449 1448 1448 1447 1448 1451 1452 1453 1453 1452 1451 1450 1450 1450 1449 1449 1449 1449 1449 1449 1449 1450 1450 1450 1449 1449 1449 1448 1447 1447 1446 1446 1445 1445 1444 1444 1445 1444 1443 1442 1441 1439 1438 1436 1435 1434 1434 1432 1430 1429 1429 1429 1428
1453 1451 1450 1451 1452 1456 1456 1455 1454 1454 1453 1452 1452 1452 1451 1450 1450 1450 1450 1450 1450 1450 1450 1449 1449 1448 1447 1447 1446 1446 1445 1445 1444 1444 1443 1443 1443 1443 1442 1441 1440 1439 1437 1436 1435 1434 1432 1431 1430 1428 1427 1426 1425 1425
1455 1454 1453 1455 1456 1457 1457 1457 1456 1455 1455 1454 1454 1453 1452 1452 1451 1451 1450 1450 1450 1449 1449 1448 1447 1447 1446 1445 1444 1444 1443 1443 1443 1442 1442 1441 1441 1440 1440 1439 1438 1436 1435 1433 1432 1430 1428 1427 1425 1424 1423 1422 1421 1420
1456 1456 1457 1457 1459 1459 1459 1458 1457 1456 1456 1455 1455 1454 1453 1452 1452 1452 1451 1450 1450 1449 1448 1447 1446 1445 1445 1444 1444 1443 1442 1442 1441 1440 1440 1439 1439 1439 1438 1436 1434 1432 1430 1429 1427 1424 1423 1421 1420 1418 1417 1416 1415 1414
1459 1459 1459 1459 1459 1460 1459 1459 1458 1457 1457 1456 1455 1454 1454 1453 1452 1453 1451 1450 1450 1448 1448 1447 1446 1445 1444 1443 1442 1441 1440 1439 1438 1438 1437 1436 1437 1436 1435 1432 1429 1427 1425 1423 1421 1419 1418 1416 1415 1413 1412 1411 1410 1409